FDX7 FAOR-HKJK

Flight info

Callsign FDX7
Flight time 4h 42m
Altitude 33000
Route VASUR3B VASUR UZ23 IMKUP UQ1 TAVLA UM215 VBU UL437 VHA UP312 MAKIR/N0486F350 UP312 EVATO EVATO2P
Aircraft B77L/H-SDE1E2E3FGHIJ2J3J4J5M1RWXY/LB1D1

Departure

Time 2026-05-07 00:14
Airport O.R. Tambo International Airport (FAOR)

Arrival

Time 2026-05-07 04:56
Airport Jomo Kenyatta International Airport (HKJK)
Time Latitude Longitude Altitude Speed Heading
2026-05-07 00:14 -26.17641 28.22482 6420 ft 201 kts 195°
2026-05-07 00:14 -26.18997 28.22077 6779 ft 204 kts 195°
2026-05-07 00:14 -26.20374 28.21665 7141 ft 206 kts 195°
2026-05-07 00:15 -26.21806 28.21233 7318 ft 221 kts 195°
2026-05-07 00:15 -26.23346 28.20765 7482 ft 239 kts 195°
2026-05-07 00:15 -26.25012 28.20256 7649 ft 258 kts 195°
2026-05-07 00:15 -26.26783 28.19713 7982 ft 269 kts 195°
2026-05-07 00:16 -26.28627 28.19146 8375 ft 280 kts 195°
2026-05-07 00:16 -26.30531 28.18551 8815 ft 287 kts 199°
2026-05-07 00:16 -26.32241 28.17427 9204 ft 293 kts 228°
2026-05-07 00:16 -26.33224 28.15482 9760 ft 295 kts 256°
2026-05-07 00:17 -26.33433 28.13181 10302 ft 298 kts 270°
2026-05-07 00:17 -26.33411 28.10832 10488 ft 317 kts 270°
2026-05-07 00:17 -26.33384 28.08257 10652 ft 338 kts 270°
2026-05-07 00:17 -26.33366 28.05601 10809 ft 358 kts 270°
2026-05-07 00:18 -26.33343 28.02759 10993 ft 373 kts 272°
2026-05-07 00:18 -26.32815 27.99904 11178 ft 385 kts 294°
2026-05-07 00:18 -26.31305 27.97414 11704 ft 393 kts 313°
2026-05-07 00:18 -26.29172 27.95487 12304 ft 396 kts 328°
2026-05-07 00:19 -26.26783 27.93934 12835 ft 401 kts 329°
2026-05-07 00:19 -26.24272 27.92616 13259 ft 404 kts 344°
2026-05-07 00:19 -26.21472 27.92291 13733 ft 404 kts
2026-05-07 00:19 -26.18626 27.92292 14153 ft 412 kts 359°
2026-05-07 00:20 -26.15741 27.92222 14700 ft 416 kts 358°
2026-05-07 00:20 -26.12847 27.92117 15240 ft 420 kts 358°
2026-05-07 00:20 -26.09905 27.91995 15708 ft 425 kts 358°
2026-05-07 00:20 -26.06945 27.91869 16287 ft 426 kts 357°
2026-05-07 00:21 -26.03983 27.91742 16813 ft 428 kts 357°
2026-05-07 00:21 -26.00986 27.91614 17147 ft 435 kts 358°
2026-05-07 00:21 -25.97950 27.91486 17517 ft 439 kts 358°
2026-05-07 00:21 -25.94897 27.91358 18029 ft 439 kts 357°
2026-05-07 00:22 -25.91841 27.91213 18460 ft 441 kts 357°
2026-05-07 00:22 -25.88763 27.91048 18821 ft 444 kts 357°
2026-05-07 00:22 -25.85666 27.90876 19199 ft 446 kts 357°
2026-05-07 00:22 -25.82557 27.90704 19568 ft 448 kts 357°
2026-05-07 00:23 -25.79437 27.90534 19922 ft 450 kts 357°
2026-05-07 00:23 -25.76297 27.90365 20239 ft 453 kts 357°
2026-05-07 00:23 -25.73141 27.90196 20532 ft 455 kts 357°
2026-05-07 00:23 -25.69968 27.90027 20842 ft 457 kts 357°
2026-05-07 00:24 -25.66786 27.89858 21151 ft 459 kts 357°
2026-05-07 00:24 -25.63583 27.89688 21438 ft 461 kts 357°
2026-05-07 00:24 -25.60368 27.89517 21705 ft 464 kts 357°
2026-05-07 00:24 -25.57152 27.89416 21936 ft 463 kts
2026-05-07 00:25 -25.53984 27.90109 22053 ft 467 kts 21°
2026-05-07 00:25 -25.51030 27.91578 22188 ft 468 kts 25°
2026-05-07 00:25 -25.48055 27.93078 22274 ft 474 kts 24°
2026-05-07 00:25 -25.45029 27.94557 22521 ft 475 kts 23°
2026-05-07 00:26 -25.41998 27.96005 22909 ft 473 kts 23°
2026-05-07 00:26 -25.38971 27.97430 23235 ft 473 kts 23°
2026-05-07 00:26 -25.35932 27.98852 23478 ft 475 kts 22°
2026-05-07 00:26 -25.32882 28.00274 23698 ft 477 kts 22°
2026-05-07 00:27 -25.29817 28.01702 23924 ft 479 kts 22°
2026-05-07 00:27 -25.26745 28.03135 24104 ft 481 kts 22°
2026-05-07 00:27 -25.23682 28.04563 24215 ft 485 kts 22°
2026-05-07 00:27 -25.20584 28.06008 24537 ft 484 kts 22°
2026-05-07 00:28 -25.17486 28.07452 24851 ft 483 kts 22°
2026-05-07 00:28 -25.14389 28.08896 25105 ft 483 kts 22°
2026-05-07 00:28 -25.11288 28.10341 25304 ft 485 kts 22°
2026-05-07 00:28 -25.08175 28.11790 25491 ft 486 kts 22°
2026-05-07 00:29 -25.05059 28.13240 25685 ft 487 kts 22°
2026-05-07 00:29 -25.01934 28.14693 25899 ft 488 kts 22°
2026-05-07 00:30 -24.92526 28.19064 26471 ft 491 kts 22°
2026-05-07 00:30 -24.89373 28.20528 26581 ft 493 kts 22°
2026-05-07 00:30 -24.86202 28.21969 26844 ft 492 kts 20°
2026-05-07 00:30 -24.84046 28.22756 27020 ft 491 kts 15°
2026-05-07 00:31 -24.79587 28.23795 27340 ft 490 kts
2026-05-07 00:31 -24.77347 28.24088 27462 ft 490 kts
2026-05-07 00:31 -24.73930 28.24219 27631 ft 491 kts
2026-05-07 00:31 -24.69359 28.24291 27851 ft 492 kts
2026-05-07 00:32 -24.67089 28.24325 27962 ft 492 kts
2026-05-07 00:32 -24.63661 28.24383 28141 ft 493 kts
2026-05-07 00:32 -24.60235 28.24452 28329 ft 493 kts
2026-05-07 00:32 -24.56807 28.24529 28525 ft 493 kts
2026-05-07 00:33 -24.53376 28.24612 28724 ft 492 kts
2026-05-07 00:33 -24.49952 28.24698 28918 ft 492 kts
2026-05-07 00:33 -24.46527 28.24784 29079 ft 493 kts
2026-05-07 00:33 -24.43102 28.24871 29197 ft 494 kts
2026-05-07 00:34 -24.36202 28.25045 29402 ft 497 kts
2026-05-07 00:34 -24.32740 28.25131 29517 ft 498 kts
2026-05-07 00:34 -24.29278 28.25217 29635 ft 499 kts
2026-05-07 00:35 -24.25801 28.25304 29748 ft 500 kts
2026-05-07 00:35 -24.22322 28.25390 29853 ft 501 kts
2026-05-07 00:35 -24.15337 28.25563 30052 ft 503 kts
2026-05-07 00:36 -24.08340 28.25737 30244 ft 505 kts
2026-05-07 00:36 -24.01302 28.25911 30427 ft 506 kts
2026-05-07 00:37 -23.94246 28.26085 30601 ft 508 kts
2026-05-07 00:37 -23.87173 28.26260 30768 ft 510 kts
2026-05-07 00:38 -23.80068 28.26436 30923 ft 511 kts
2026-05-07 00:38 -23.72950 28.26611 31074 ft 512 kts
2026-05-07 00:39 -23.65808 28.26787 31214 ft 514 kts
2026-05-07 00:39 -23.58652 28.26963 31348 ft 515 kts
2026-05-07 00:40 -23.51476 28.27138 31474 ft 516 kts
2026-05-07 00:40 -23.44286 28.27314 31593 ft 518 kts
2026-05-07 00:41 -23.37077 28.27489 31707 ft 519 kts
2026-05-07 00:41 -23.29851 28.27665 31801 ft 520 kts
2026-05-07 00:42 -23.22612 28.27841 31909 ft 521 kts
2026-05-07 00:42 -23.15363 28.28017 31996 ft 521 kts
2026-05-07 00:43 -23.08103 28.28194 32073 ft 522 kts
2026-05-07 00:43 -23.00834 28.28370 32152 ft 523 kts
2026-05-07 00:44 -22.93552 28.28546 32220 ft 524 kts
2026-05-07 00:44 -22.86260 28.28722 32284 ft 524 kts
2026-05-07 00:45 -22.78961 28.28899 32343 ft 525 kts
2026-05-07 00:45 -22.71705 28.29074 32397 ft 525 kts
2026-05-07 00:46 -22.64387 28.29250 32446 ft 526 kts
2026-05-07 00:46 -22.57101 28.29931 32481 ft 527 kts
2026-05-07 00:47 -22.49837 28.31018 32521 ft 527 kts
2026-05-07 00:47 -22.42571 28.32091 32565 ft 527 kts
2026-05-07 00:48 -22.35293 28.33129 32600 ft 528 kts
2026-05-07 00:48 -22.28006 28.34153 32633 ft 528 kts
2026-05-07 00:49 -22.20719 28.35178 32665 ft 528 kts
2026-05-07 00:49 -22.13423 28.36205 32693 ft 529 kts
2026-05-07 00:50 -22.06126 28.37232 32720 ft 529 kts
2026-05-07 00:50 -21.98826 28.38258 32743 ft 529 kts
2026-05-07 00:51 -21.91529 28.39283 32765 ft 529 kts
2026-05-07 00:51 -21.84217 28.40309 32787 ft 530 kts
2026-05-07 00:52 -21.76910 28.41333 32819 ft 529 kts
2026-05-07 00:52 -21.69668 28.42347 32948 ft 527 kts
2026-05-07 00:53 -21.62440 28.43353 33003 ft 521 kts
2026-05-07 00:53 -21.55275 28.44310 32998 ft 516 kts
2026-05-07 00:54 -21.48168 28.45248 32996 ft 513 kts
2026-05-07 00:54 -21.41114 28.46182 32996 ft 509 kts
2026-05-07 00:55 -21.34101 28.47114 32996 ft 506 kts
2026-05-07 00:55 -21.27128 28.48041 32997 ft 503 kts
2026-05-07 00:56 -21.20202 28.48961 32998 ft 501 kts
2026-05-07 00:56 -21.13299 28.49876 32999 ft 499 kts
2026-05-07 00:57 -21.06426 28.50786 33000 ft 496 kts
2026-05-07 00:57 -20.99587 28.51691 32999 ft 495 kts
2026-05-07 00:58 -20.92742 28.52596 33021 ft 497 kts
2026-05-07 00:58 -20.85846 28.53507 33053 ft 501 kts
2026-05-07 00:59 -20.75459 28.54878 33095 ft 506 kts
2026-05-07 01:00 -20.68448 28.55802 33121 ft 509 kts
2026-05-07 01:00 -20.61393 28.56731 33146 ft 512 kts
2026-05-07 01:01 -20.54297 28.57664 33169 ft 515 kts
2026-05-07 01:01 -20.47170 28.58601 33189 ft 518 kts
2026-05-07 01:02 -20.39995 28.59543 33206 ft 520 kts
2026-05-07 01:02 -20.32802 28.60487 33221 ft 522 kts
2026-05-07 01:03 -20.25589 28.61432 33233 ft 523 kts
2026-05-07 01:03 -20.18352 28.62380 33243 ft 525 kts
2026-05-07 01:04 -20.11092 28.63329 33252 ft 526 kts
2026-05-07 01:04 -20.04010 28.65094 33238 ft 526 kts 24°
2026-05-07 01:05 -19.97947 28.69387 33243 ft 524 kts 45°
2026-05-07 01:05 -19.92883 28.74959 33271 ft 525 kts 46°
2026-05-07 01:06 -19.87792 28.80544 33280 ft 526 kts 45°
2026-05-07 01:06 -19.82645 28.86084 33288 ft 527 kts 45°
2026-05-07 01:07 -19.77469 28.91604 33295 ft 528 kts 45°
2026-05-07 01:07 -19.72278 28.97130 33301 ft 529 kts 45°
2026-05-07 01:08 -19.67089 29.02655 33307 ft 529 kts 45°
2026-05-07 01:08 -19.61884 29.08196 33312 ft 530 kts 45°
2026-05-07 01:09 -19.56683 29.13728 33318 ft 530 kts 45°
2026-05-07 01:09 -19.51505 29.19229 33323 ft 530 kts 45°
2026-05-07 01:10 -19.46291 29.24762 33329 ft 531 kts 45°
2026-05-07 01:10 -19.41071 29.30297 33334 ft 531 kts 45°
2026-05-07 01:11 -19.35849 29.35828 33340 ft 531 kts 45°
2026-05-07 01:11 -19.30628 29.41353 33345 ft 531 kts 45°
2026-05-07 01:12 -19.25397 29.46884 33350 ft 531 kts 45°
2026-05-07 01:12 -19.20161 29.52415 33355 ft 531 kts 45°
2026-05-07 01:13 -19.14933 29.57933 33360 ft 531 kts 45°
2026-05-07 01:13 -19.09698 29.63452 33366 ft 532 kts 45°
2026-05-07 01:14 -19.04457 29.68972 33371 ft 532 kts 45°
2026-05-07 01:14 -18.99220 29.74484 33376 ft 532 kts 45°
2026-05-07 01:15 -18.93982 29.80001 33381 ft 532 kts 46°
2026-05-07 01:15 -18.89158 29.85916 33386 ft 531 kts 51°
2026-05-07 01:16 -18.85285 29.90949 33390 ft 531 kts 51°
2026-05-07 01:16 -18.80598 29.96995 33396 ft 532 kts 50°
2026-05-07 01:17 -18.75092 30.04024 33402 ft 532 kts 50°
2026-05-07 01:17 -18.71174 30.09015 33406 ft 532 kts 50°
2026-05-07 01:18 -18.66459 30.15021 33411 ft 532 kts 50°
2026-05-07 01:18 -18.61738 30.21031 33416 ft 532 kts 50°
2026-05-07 01:19 -18.57043 30.27052 33421 ft 532 kts 51°
2026-05-07 01:19 -18.52363 30.33085 33426 ft 532 kts 51°
2026-05-07 01:20 -18.47678 30.39116 33432 ft 532 kts 51°
2026-05-07 01:20 -18.42987 30.45141 33437 ft 532 kts 51°
2026-05-07 01:21 -18.38296 30.51158 33442 ft 532 kts 51°
2026-05-07 01:21 -18.33596 30.57181 33447 ft 532 kts 51°
2026-05-07 01:22 -18.28899 30.63194 33452 ft 532 kts 51°
2026-05-07 01:22 -18.24201 30.69204 33457 ft 532 kts 50°
2026-05-07 01:23 -18.19502 30.75210 33462 ft 532 kts 50°
2026-05-07 01:23 -18.14798 30.81214 33467 ft 532 kts 50°
2026-05-07 01:24 -18.10091 30.87219 33472 ft 532 kts 50°
2026-05-07 01:24 -18.05385 30.93217 33477 ft 532 kts 50°
2026-05-07 01:25 -18.00676 30.99213 33482 ft 532 kts 50°
2026-05-07 01:25 -17.95966 31.05206 33488 ft 532 kts 50°
2026-05-07 01:26 -17.90701 31.10605 33473 ft 530 kts 33°
2026-05-07 01:26 -17.84070 31.13911 33478 ft 528 kts 15°
2026-05-07 01:27 -17.76978 31.15736 33503 ft 528 kts 13°
2026-05-07 01:27 -17.69780 31.17573 33509 ft 529 kts 14°
2026-05-07 01:28 -17.62638 31.19468 33515 ft 530 kts 14°
2026-05-07 01:28 -17.55552 31.21383 33520 ft 530 kts 14°
2026-05-07 01:29 -17.48409 31.23317 33526 ft 530 kts 14°
2026-05-07 01:29 -17.41217 31.25257 33531 ft 531 kts 14°
2026-05-07 01:30 -17.34114 31.27169 33536 ft 531 kts 14°
2026-05-07 01:30 -17.26954 31.29094 33542 ft 531 kts 14°
2026-05-07 01:31 -17.19796 31.31017 33547 ft 531 kts 14°
2026-05-07 01:31 -17.12641 31.32938 33553 ft 531 kts 14°
2026-05-07 01:32 -17.05482 31.34859 33558 ft 531 kts 14°
2026-05-07 01:32 -16.98313 31.36781 33562 ft 531 kts 14°
2026-05-07 01:33 -16.91157 31.38698 33568 ft 531 kts 14°
2026-05-07 01:33 -16.83995 31.40615 33573 ft 531 kts 14°
2026-05-07 01:34 -16.76832 31.42531 33578 ft 531 kts 14°
2026-05-07 01:34 -16.69667 31.44446 33583 ft 532 kts 14°
2026-05-07 01:35 -16.62498 31.46361 33588 ft 532 kts 14°
2026-05-07 01:35 -16.55327 31.48274 33593 ft 532 kts 14°
2026-05-07 01:36 -16.48165 31.50184 33598 ft 532 kts 14°
2026-05-07 01:36 -16.40998 31.52094 33603 ft 532 kts 14°
2026-05-07 01:37 -16.33831 31.54002 33608 ft 532 kts 14°
2026-05-07 01:37 -16.26669 31.55908 33613 ft 532 kts 14°
2026-05-07 01:38 -16.19497 31.57814 33618 ft 532 kts 14°
2026-05-07 01:38 -16.12302 31.59597 33623 ft 532 kts 12°
2026-05-07 01:39 -16.05071 31.61249 33629 ft 532 kts 12°
2026-05-07 01:39 -15.97853 31.62907 33634 ft 532 kts 12°
2026-05-07 01:40 -15.90633 31.64591 33639 ft 532 kts 12°
2026-05-07 01:40 -15.83419 31.66282 33644 ft 532 kts 12°
2026-05-07 01:41 -15.76248 31.67959 33649 ft 532 kts 12°
2026-05-07 01:41 -15.69031 31.69644 33654 ft 532 kts 12°
2026-05-07 01:42 -15.61812 31.71328 33659 ft 532 kts 12°
2026-05-07 01:42 -15.54600 31.73010 33664 ft 532 kts 12°
2026-05-07 01:43 -15.47403 31.74803 33668 ft 532 kts 15°
2026-05-07 01:43 -15.40273 31.76859 33674 ft 532 kts 15°
2026-05-07 01:44 -15.33148 31.78933 33679 ft 532 kts 15°
2026-05-07 01:44 -15.26017 31.80959 33684 ft 532 kts 15°
2026-05-07 01:45 -15.18874 31.82962 33689 ft 532 kts 15°
2026-05-07 01:45 -15.11726 31.84963 33694 ft 532 kts 15°
2026-05-07 01:46 -15.04588 31.86963 33699 ft 532 kts 15°
2026-05-07 01:46 -14.97448 31.88965 33704 ft 532 kts 15°
2026-05-07 01:47 -14.90302 31.90967 33709 ft 532 kts 15°
2026-05-07 01:47 -14.83155 31.92967 33714 ft 532 kts 15°
2026-05-07 01:48 -14.76011 31.94966 33719 ft 532 kts 15°
2026-05-07 01:48 -14.68916 31.96949 33724 ft 532 kts 15°
2026-05-07 01:49 -14.61774 31.98944 33729 ft 532 kts 15°
2026-05-07 01:49 -14.54631 32.00939 33734 ft 532 kts 15°
2026-05-07 01:50 -14.47492 32.02930 33739 ft 532 kts 15°
2026-05-07 01:50 -14.40343 32.04924 33749 ft 532 kts 15°
2026-05-07 01:51 -14.33198 32.06889 33754 ft 532 kts 14°
2026-05-07 01:51 -14.26025 32.08773 33760 ft 532 kts 14°
2026-05-07 01:52 -14.18855 32.10644 33765 ft 532 kts 14°
2026-05-07 01:52 -14.11685 32.12528 33770 ft 532 kts 14°
2026-05-07 01:53 -14.04515 32.14418 33776 ft 532 kts 14°
2026-05-07 01:53 -13.97343 32.16308 33780 ft 532 kts 14°
2026-05-07 01:54 -13.90180 32.18193 33785 ft 532 kts 14°
2026-05-07 01:54 -13.83008 32.20079 33790 ft 532 kts 14°
2026-05-07 01:55 -13.75837 32.21964 33795 ft 532 kts 14°
2026-05-07 01:55 -13.68668 32.23847 33800 ft 532 kts 14°
2026-05-07 01:56 -13.61496 32.25730 33806 ft 532 kts 14°
2026-05-07 01:56 -13.54330 32.27629 33810 ft 532 kts 14°
2026-05-07 01:57 -13.47184 32.29602 33816 ft 532 kts 15°
2026-05-07 01:57 -13.40032 32.31573 33820 ft 532 kts 15°
2026-05-07 01:58 -13.32855 32.33412 33824 ft 532 kts 12°
2026-05-07 01:58 -13.25619 32.34992 33830 ft 532 kts 12°
2026-05-07 01:59 -13.18421 32.36547 33835 ft 532 kts 12°
2026-05-07 01:59 -13.11149 32.38164 33841 ft 532 kts 12°
2026-05-07 02:00 -13.03968 32.39784 33850 ft 532 kts 12°
2026-05-07 02:00 -12.96742 32.41414 33855 ft 532 kts 12°
2026-05-07 02:01 -12.89511 32.43042 33860 ft 532 kts 12°
2026-05-07 02:01 -12.82283 32.44665 33865 ft 532 kts 12°
2026-05-07 02:02 -12.75055 32.46288 33870 ft 532 kts 12°
2026-05-07 02:02 -12.67830 32.47909 33875 ft 532 kts 12°
2026-05-07 02:03 -12.60600 32.49531 33880 ft 532 kts 12°
2026-05-07 02:03 -12.53365 32.51153 33885 ft 532 kts 12°
2026-05-07 02:04 -12.46139 32.52772 33890 ft 532 kts 12°
2026-05-07 02:04 -12.38912 32.54390 33896 ft 532 kts 12°
2026-05-07 02:05 -12.32903 32.55735 33900 ft 532 kts 12°
2026-05-07 02:05 -12.25670 32.57353 33905 ft 532 kts 12°
2026-05-07 02:06 -12.18441 32.58971 33910 ft 532 kts 12°
2026-05-07 02:06 -12.11263 32.60816 33916 ft 532 kts 15°
2026-05-07 02:07 -12.02969 32.63140 33922 ft 532 kts 15°
2026-05-07 02:07 -11.93412 32.65771 33929 ft 532 kts 14°
2026-05-07 02:08 -11.86254 32.67702 33934 ft 532 kts 14°
2026-05-07 02:08 -11.79098 32.69626 33939 ft 532 kts 14°
2026-05-07 02:09 -11.71939 32.71552 33944 ft 532 kts 14°
2026-05-07 02:09 -11.64786 32.73479 33949 ft 532 kts 14°
2026-05-07 02:10 -11.57635 32.75404 33954 ft 532 kts 14°
2026-05-07 02:10 -11.50522 32.77318 33959 ft 532 kts 14°
2026-05-07 02:11 -11.43362 32.79243 33964 ft 532 kts 14°
2026-05-07 02:11 -11.36209 32.81166 33969 ft 532 kts 14°
2026-05-07 02:12 -11.29049 32.83089 33974 ft 532 kts 14°
2026-05-07 02:12 -11.21893 32.85010 33979 ft 532 kts 14°
2026-05-07 02:13 -11.14738 32.86930 33984 ft 532 kts 14°
2026-05-07 02:13 -11.07575 32.88851 33989 ft 532 kts 14°
2026-05-07 02:14 -11.00416 32.90770 33995 ft 532 kts 14°
2026-05-07 02:14 -10.93263 32.92687 34000 ft 532 kts 14°
2026-05-07 02:15 -10.86105 32.94604 34005 ft 532 kts 14°
2026-05-07 02:15 -10.78941 32.96522 34010 ft 532 kts 14°
2026-05-07 02:16 -10.71785 32.98436 34015 ft 532 kts 14°
2026-05-07 02:16 -10.64626 33.00350 34020 ft 532 kts 14°
2026-05-07 02:17 -10.57471 33.02263 34025 ft 532 kts 14°
2026-05-07 02:17 -10.50309 33.04176 34030 ft 532 kts 14°
2026-05-07 02:18 -10.43144 33.06089 34035 ft 532 kts 14°
2026-05-07 02:18 -10.36033 33.07987 34040 ft 532 kts 14°
2026-05-07 02:19 -10.28870 33.09898 34045 ft 532 kts 14°
2026-05-07 02:19 -10.21716 33.11805 34050 ft 532 kts 14°
2026-05-07 02:20 -10.14550 33.13715 34055 ft 532 kts 14°
2026-05-07 02:20 -10.07391 33.15622 34061 ft 532 kts 14°
2026-05-07 02:21 -10.00233 33.17528 34066 ft 532 kts 14°
2026-05-07 02:21 -9.93070 33.19435 34071 ft 532 kts 14°
2026-05-07 02:22 -9.85908 33.21340 34076 ft 532 kts 14°
2026-05-07 02:22 -9.78747 33.23245 34081 ft 532 kts 14°
2026-05-07 02:23 -9.71584 33.25149 34086 ft 532 kts 14°
2026-05-07 02:23 -9.64419 33.27052 34091 ft 532 kts 14°
2026-05-07 02:24 -9.57263 33.28953 34096 ft 532 kts 14°
2026-05-07 02:24 -9.50096 33.30855 34101 ft 532 kts 14°
2026-05-07 02:25 -9.42923 33.32714 34107 ft 532 kts 14°
2026-05-07 02:25 -9.35741 33.34523 34112 ft 532 kts 14°
2026-05-07 02:26 -9.28563 33.36358 34118 ft 532 kts 14°
2026-05-07 02:26 -9.21385 33.38231 34121 ft 532 kts 14°
2026-05-07 02:27 -9.14217 33.40103 34126 ft 532 kts 14°
2026-05-07 02:27 -9.07040 33.41970 34131 ft 532 kts 14°
2026-05-07 02:28 -8.99916 33.43821 34137 ft 532 kts 14°
2026-05-07 02:28 -8.92763 33.45764 34138 ft 532 kts 18°
2026-05-07 02:29 -8.85932 33.48636 34148 ft 532 kts 25°
2026-05-07 02:29 -8.79242 33.51832 34152 ft 532 kts 25°
2026-05-07 02:30 -8.72536 33.55008 34158 ft 532 kts 25°
2026-05-07 02:30 -8.65810 33.58152 34162 ft 532 kts 25°
2026-05-07 02:31 -8.59085 33.61279 34167 ft 532 kts 25°
2026-05-07 02:31 -8.52355 33.64407 34173 ft 532 kts 25°
2026-05-07 02:32 -8.45627 33.67536 34178 ft 532 kts 25°
2026-05-07 02:32 -8.38895 33.70667 34183 ft 532 kts 25°
2026-05-07 02:33 -8.32169 33.73795 34188 ft 532 kts 25°
2026-05-07 02:33 -8.25447 33.76919 34193 ft 532 kts 25°
2026-05-07 02:34 -8.18713 33.80047 34198 ft 532 kts 25°
2026-05-07 02:34 -8.11989 33.83169 34208 ft 532 kts 25°
2026-05-07 02:35 -8.05261 33.86292 34213 ft 532 kts 25°
2026-05-07 02:35 -7.98525 33.89418 34217 ft 532 kts 25°
2026-05-07 02:36 -7.91798 33.92539 34223 ft 532 kts 25°
2026-05-07 02:36 -7.85072 33.95658 34228 ft 532 kts 25°
2026-05-07 02:37 -7.78337 33.98780 34233 ft 532 kts 25°
2026-05-07 02:37 -7.71608 34.01897 34238 ft 532 kts 24°
2026-05-07 02:38 -7.64886 34.05011 34239 ft 531 kts 24°
2026-05-07 02:38 -7.58211 34.08102 34233 ft 524 kts 24°
2026-05-07 02:39 -7.51622 34.11152 34233 ft 519 kts 24°
2026-05-07 02:39 -7.45087 34.14176 34233 ft 515 kts 24°
2026-05-07 02:40 -7.38601 34.17177 34233 ft 511 kts 24°
2026-05-07 02:40 -7.32200 34.20136 34235 ft 508 kts 24°
2026-05-07 02:41 -7.25797 34.23097 34236 ft 505 kts 24°
2026-05-07 02:41 -7.19420 34.26044 34237 ft 502 kts 24°
2026-05-07 02:42 -7.13084 34.28971 34238 ft 500 kts 24°
2026-05-07 02:42 -7.06772 34.31886 34239 ft 498 kts 24°
2026-05-07 02:43 -7.00487 34.34788 34240 ft 496 kts 24°
2026-05-07 02:43 -6.94218 34.37682 34240 ft 494 kts 24°
2026-05-07 02:44 -6.87975 34.40563 34240 ft 493 kts 24°
2026-05-07 02:44 -6.81749 34.43435 34240 ft 492 kts 24°
2026-05-07 02:45 -6.75538 34.46299 34240 ft 490 kts 24°
2026-05-07 02:45 -6.69339 34.49157 34239 ft 489 kts 24°
2026-05-07 02:46 -6.63196 34.51989 34241 ft 488 kts 24°
2026-05-07 02:46 -6.57032 34.54829 34241 ft 487 kts 24°
2026-05-07 02:47 -6.50872 34.57667 34240 ft 486 kts 24°
2026-05-07 02:47 -6.44728 34.60497 34241 ft 486 kts 24°
2026-05-07 02:48 -6.38586 34.63324 34240 ft 485 kts 24°
2026-05-07 02:48 -6.32462 34.66144 34241 ft 484 kts 24°
2026-05-07 02:49 -6.26339 34.68961 34240 ft 484 kts 24°
2026-05-07 02:49 -6.20221 34.71776 34241 ft 483 kts 24°
2026-05-07 02:50 -6.14112 34.74586 34241 ft 483 kts 24°
2026-05-07 02:50 -6.08007 34.77393 34241 ft 482 kts 24°
2026-05-07 02:51 -6.01906 34.80198 34241 ft 482 kts 24°
2026-05-07 02:51 -5.95810 34.83000 34241 ft 482 kts 24°
2026-05-07 02:52 -5.89715 34.85798 34242 ft 482 kts 24°
2026-05-07 02:52 -5.83628 34.88594 34241 ft 481 kts 25°
2026-05-07 02:53 -5.77537 34.91398 34242 ft 481 kts 24°
2026-05-07 02:53 -5.72475 34.93718 34242 ft 481 kts 24°
2026-05-07 02:54 -5.66380 34.96511 34241 ft 481 kts 24°
2026-05-07 02:54 -5.59302 34.99755 34242 ft 481 kts 24°
2026-05-07 02:55 -5.54201 35.02091 34239 ft 481 kts 23°
2026-05-07 02:55 -5.48091 35.04844 34239 ft 481 kts 23°
2026-05-07 02:56 -5.42013 35.07638 34244 ft 480 kts 24°
2026-05-07 02:56 -5.35981 35.10423 34240 ft 480 kts 24°
2026-05-07 02:57 -5.29873 35.13246 34243 ft 480 kts 24°
2026-05-07 02:57 -5.23830 35.16010 34241 ft 481 kts 24°
2026-05-07 02:58 -5.17746 35.18792 34242 ft 481 kts 24°
2026-05-07 02:58 -5.11637 35.21586 34065 ft 486 kts 24°
2026-05-07 02:59 -5.05468 35.24410 34006 ft 488 kts 24°
2026-05-07 02:59 -4.99306 35.27233 34002 ft 487 kts 24°
2026-05-07 03:00 -4.93142 35.30052 34000 ft 486 kts 24°
2026-05-07 03:00 -4.86986 35.32866 34002 ft 486 kts 24°
2026-05-07 03:01 -4.80837 35.35677 34001 ft 485 kts 24°
2026-05-07 03:01 -4.74693 35.38486 34001 ft 485 kts 24°
2026-05-07 03:02 -4.68556 35.41292 34001 ft 485 kts 24°
2026-05-07 03:02 -4.62416 35.44098 34001 ft 484 kts 24°
2026-05-07 03:03 -4.56284 35.46899 34002 ft 484 kts 24°
2026-05-07 03:03 -4.50157 35.49698 34001 ft 484 kts 24°
2026-05-07 03:04 -4.44034 35.52496 34001 ft 484 kts 24°
2026-05-07 03:04 -4.37912 35.55293 34001 ft 483 kts 24°
2026-05-07 03:05 -4.31793 35.58088 34002 ft 483 kts 24°
2026-05-07 03:05 -4.25676 35.60881 34002 ft 483 kts 24°
2026-05-07 03:06 -4.19549 35.63647 34001 ft 483 kts 24°
2026-05-07 03:06 -4.13409 35.66391 34002 ft 483 kts 24°
2026-05-07 03:07 -4.07278 35.69137 34001 ft 483 kts 24°
2026-05-07 03:07 -4.01147 35.71888 34001 ft 483 kts 24°
2026-05-07 03:08 -3.95061 35.74633 34001 ft 483 kts 24°
2026-05-07 03:08 -3.88961 35.77453 34002 ft 483 kts 25°
2026-05-07 03:09 -3.82867 35.80279 34002 ft 483 kts 25°
2026-05-07 03:09 -3.76769 35.83096 34002 ft 483 kts 25°
2026-05-07 03:10 -3.70670 35.85910 34002 ft 483 kts 25°
2026-05-07 03:10 -3.64568 35.88724 34001 ft 483 kts 25°
2026-05-07 03:11 -3.58466 35.91539 34001 ft 483 kts 25°
2026-05-07 03:11 -3.52368 35.94348 34001 ft 483 kts 24°
2026-05-07 03:12 -3.46260 35.97149 34001 ft 483 kts 24°
2026-05-07 03:12 -3.40153 35.99949 34003 ft 483 kts 24°
2026-05-07 03:13 -3.34047 36.02750 34001 ft 483 kts 24°
2026-05-07 03:13 -3.27938 36.05553 34002 ft 483 kts 24°
2026-05-07 03:14 -3.21828 36.08356 34001 ft 483 kts 24°
2026-05-07 03:15 -3.13879 36.11953 34001 ft 483 kts 24°
2026-05-07 04:35 -3.09733 36.13732 34001 ft 483 kts 22°
2026-05-07 04:36 -3.03518 36.16270 34002 ft 483 kts 22°
2026-05-07 04:36 -2.97287 36.18816 34004 ft 483 kts 22°
2026-05-07 04:37 -2.91079 36.21378 34000 ft 483 kts 22°
2026-05-07 04:37 -2.87971 36.22663 33751 ft 481 kts 22°
2026-05-07 04:37 -2.84885 36.23940 33219 ft 479 kts 22°
2026-05-07 04:38 -2.81816 36.25208 32645 ft 477 kts 22°
2026-05-07 04:38 -2.78754 36.26472 31983 ft 476 kts 22°
2026-05-07 04:38 -2.75689 36.27737 31356 ft 475 kts 22°
2026-05-07 04:38 -2.72656 36.28988 30965 ft 468 kts 22°
2026-05-07 04:39 -2.69666 36.30221 30656 ft 460 kts 22°
2026-05-07 04:39 -2.66725 36.31427 30261 ft 454 kts 21°
2026-05-07 04:39 -2.63808 36.32606 29796 ft 450 kts 21°
2026-05-07 04:39 -2.60899 36.33790 29036 ft 454 kts 21°
2026-05-07 04:40 -2.57986 36.34988 28495 ft 451 kts 21°
2026-05-07 04:40 -2.55111 36.36192 28162 ft 444 kts 22°
2026-05-07 04:40 -2.52289 36.37384 27883 ft 436 kts 22°
2026-05-07 04:40 -2.49505 36.38547 27454 ft 432 kts 22°
2026-05-07 04:41 -2.46735 36.39692 26969 ft 430 kts 22°
2026-05-07 04:41 -2.43980 36.40824 26530 ft 426 kts 22°
2026-05-07 04:41 -2.41246 36.41948 26124 ft 422 kts 22°
2026-05-07 04:41 -2.38543 36.43061 25730 ft 418 kts 22°
2026-05-07 04:42 -2.35864 36.44165 25236 ft 417 kts 22°
2026-05-07 04:42 -2.33182 36.45261 24745 ft 415 kts 20°
2026-05-07 04:42 -2.30455 36.46178 24303 ft 412 kts 16°
2026-05-07 04:42 -2.27704 36.46950 23925 ft 408 kts 15°
2026-05-07 04:43 -2.24974 36.47671 23525 ft 404 kts 14°
2026-05-07 04:43 -2.22272 36.48383 23189 ft 399 kts 14°
2026-05-07 04:43 -2.19617 36.49096 22974 ft 391 kts 15°
2026-05-07 04:43 -2.17001 36.49813 22512 ft 390 kts 15°
2026-05-07 04:44 -2.14385 36.50540 21990 ft 390 kts 15°
2026-05-07 04:44 -2.11771 36.51273 21547 ft 389 kts 15°
2026-05-07 04:44 -2.09181 36.52004 21159 ft 385 kts 15°
2026-05-07 04:44 -2.06616 36.52729 20783 ft 382 kts 15°
2026-05-07 04:45 -2.04055 36.53452 20272 ft 383 kts 15°
2026-05-07 04:45 -2.01502 36.54173 19921 ft 380 kts 15°
2026-05-07 04:45 -1.98970 36.54889 19517 ft 378 kts 15°
2026-05-07 04:45 -1.96433 36.55608 18962 ft 379 kts 15°
2026-05-07 04:46 -1.93893 36.56327 18421 ft 379 kts 15°
2026-05-07 04:46 -1.91353 36.57046 17879 ft 379 kts 15°
2026-05-07 04:46 -1.88819 36.57763 17336 ft 379 kts 15°
2026-05-07 04:46 -1.86281 36.58480 16793 ft 379 kts 15°
2026-05-07 04:47 -1.83778 36.59188 16256 ft 378 kts 15°
2026-05-07 04:47 -1.81214 36.59912 15705 ft 378 kts 15°
2026-05-07 04:47 -1.78687 36.60627 15160 ft 377 kts 15°
2026-05-07 04:47 -1.76197 36.61330 14623 ft 376 kts 15°
2026-05-07 04:48 -1.73681 36.62042 14078 ft 375 kts 15°
2026-05-07 04:48 -1.71137 36.62761 13524 ft 374 kts 15°
2026-05-07 04:48 -1.68669 36.63458 12985 ft 373 kts 15°
2026-05-07 04:48 -1.66143 36.64172 12432 ft 372 kts 15°
2026-05-07 04:49 -1.63690 36.64866 11893 ft 370 kts 15°
2026-05-07 04:49 -1.61181 36.65575 11346 ft 369 kts 15°
2026-05-07 04:49 -1.58769 36.66257 10892 ft 358 kts 15°
2026-05-07 04:49 -1.56447 36.66914 10474 ft 337 kts 15°
2026-05-07 04:50 -1.54267 36.67530 10269 ft 314 kts 15°
2026-05-07 04:50 -1.52236 36.68104 10123 ft 293 kts 15°
2026-05-07 04:50 -1.50307 36.68680 10024 ft 289 kts 22°
2026-05-07 04:50 -1.48632 36.69803 9810 ft 293 kts 49°
2026-05-07 04:51 -1.47436 36.71411 9863 ft 282 kts 56°
2026-05-07 04:51 -1.46343 36.72962 9809 ft 267 kts 54°
2026-05-07 04:51 -1.45260 36.74460 9435 ft 264 kts 54°
2026-05-07 04:51 -1.44194 36.75924 9125 ft 256 kts 54°
2026-05-07 04:52 -1.43178 36.77320 8801 ft 238 kts 54°
2026-05-07 04:52 -1.42248 36.78598 8473 ft 217 kts 54°
2026-05-07 04:52 -1.41413 36.79747 8185 ft 193 kts 54°
2026-05-07 04:52 -1.40641 36.80808 7938 ft 187 kts 54°
2026-05-07 04:53 -1.39880 36.81855 7699 ft 185 kts 54°
2026-05-07 04:53 -1.39132 36.82883 7447 ft 180 kts 54°
2026-05-07 04:53 -1.38401 36.83888 7218 ft 179 kts 54°
2026-05-07 04:53 -1.37669 36.84894 6990 ft 180 kts 54°
2026-05-07 04:54 -1.36932 36.85906 6752 ft 180 kts 54°
2026-05-07 04:54 -1.36201 36.86911 6509 ft 178 kts 54°
2026-05-07 04:54 -1.35472 36.87909 6257 ft 177 kts 53°
2026-05-07 04:54 -1.34746 36.88897 6045 ft 174 kts 55°
2026-05-07 04:55 -1.34024 36.89883 5815 ft 178 kts 53°
2026-05-07 04:55 -1.33315 36.90873 5581 ft 173 kts 54°
2026-05-07 04:55 -1.32622 36.91825 5372 ft 162 kts 54°
2026-05-07 04:55 -1.32017 36.92653 5324 ft 126 kts 53°
2026-05-07 04:56 -1.31610 36.93212 5311 ft 73 kts 54°
2026-05-07 04:56 -1.31362 36.93549 5311 ft 60 kts 53°
2026-05-07 04:56 -1.31166 36.93819 5305 ft 31 kts 55°
2026-05-07 04:56 -1.31041 36.93989 5300 ft 30 kts 54°
2026-05-07 04:57 -1.30918 36.94156 5297 ft 29 kts 53°
2026-05-07 04:57 -1.30803 36.94314 5295 ft 27 kts 54°
2026-05-07 04:57 -1.30696 36.94458 5297 ft 23 kts 53°
2026-05-07 04:57 -1.30609 36.94547 5296 ft 14 kts 24°
2026-05-07 04:58 -1.30581 36.94594 5295 ft 5 kts 161°
2026-05-07 04:58 -1.30642 36.94534 5297 ft 20 kts 234°
2026-05-07 04:58 -1.30735 36.94405 5296 ft 25 kts 234°
2026-05-07 04:58 -1.30838 36.94263 5295 ft 26 kts 234°
2026-05-07 04:59 -1.30943 36.94120 5297 ft 26 kts 233°
2026-05-07 04:59 -1.31047 36.93979 5300 ft 24 kts 233°
2026-05-07 04:59 -1.31136 36.93860 5305 ft 17 kts 233°
2026-05-07 04:59 -1.31221 36.93863 5306 ft 13 kts 145°
2026-05-07 05:00 -1.31283 36.93907 5308 ft 9 kts 144°
2026-05-07 05:00 -1.31327 36.93938 5309 ft 7 kts 144°
2026-05-07 05:00 -1.31375 36.93974 5309 ft 13 kts 141°
2026-05-07 05:00 -1.31458 36.93971 5310 ft 13 kts 226°
2026-05-07 05:01 -1.31508 36.93907 5312 ft 10 kts 233°
2026-05-07 05:01 -1.31547 36.93854 5313 ft 9 kts 234°
2026-05-07 05:01 -1.31591 36.93794 5314 ft 12 kts 234°
2026-05-07 05:01 -1.31648 36.93715 5314 ft 16 kts 234°
2026-05-07 05:02 -1.31716 36.93621 5315 ft 17 kts 234°
2026-05-07 05:02 -1.31788 36.93522 5316 ft 19 kts 234°
2026-05-07 05:02 -1.31871 36.93409 5315 ft 21 kts 233°
2026-05-07 05:02 -1.31954 36.93296 5318 ft 19 kts 234°
2026-05-07 05:03 -1.32027 36.93194 5320 ft 18 kts 234°
2026-05-07 05:03 -1.32096 36.93099 5322 ft 16 kts 234°
2026-05-07 05:03 -1.32154 36.93018 5325 ft 13 kts 234°
2026-05-07 05:03 -1.32204 36.92951 5326 ft 12 kts 231°
2026-05-07 05:04 -1.32258 36.92880 5326 ft 14 kts 233°
2026-05-07 05:04 -1.32322 36.92793 5328 ft 16 kts 234°
2026-05-07 05:04 -1.32392 36.92695 5329 ft 19 kts 234°
2026-05-07 05:04 -1.32475 36.92581 5328 ft 22 kts 233°
2026-05-07 05:05 -1.32569 36.92453 5329 ft 24 kts 234°
2026-05-07 05:05 -1.32674 36.92313 5329 ft 26 kts 233°
2026-05-07 05:05 -1.32778 36.92170 5331 ft 24 kts 234°
2026-05-07 05:05 -1.32880 36.92028 5333 ft 26 kts 234°
2026-05-07 05:06 -1.32990 36.91879 5335 ft 26 kts 233°
2026-05-07 05:06 -1.33089 36.91744 5329 ft 21 kts 233°
2026-05-07 05:06 -1.33174 36.91649 5329 ft 16 kts 220°
2026-05-07 05:06 -1.33251 36.91579 5329 ft 14 kts 226°
2026-05-07 05:07 -1.33308 36.91581 5329 ft 8 kts 149°
2026-05-07 05:07 -1.33342 36.91603 5329 ft 1 kts 144°
2026-05-07 05:07 -1.33344 36.91605 5329 ft 0 kts 144°
2026-05-07 05:07 -1.33347 36.91607 5329 ft 1 kts 144°
2026-05-07 05:08 -1.33351 36.91609 5329 ft 0 kts 143°